Simultaneous Nadir Overpasses (SNOs) Predictions

Prediction of SNOs between AQUA and NOAA-19 Satellite Orbit:

Table of predicted SNOs for the next 14.0 days since TLE Epoch: 4/3/2020
Index Date (AQUA) Time (AQUA) Lat,Lon (AQUA) SZA (AQUA ) Date (NOAA-19) Time (NOAA-19) Lat,Lon (NOAA-19) SZA (NOAA-19 ) Distance(km) Time Diff (sec)
1 04/04/2020 21:38:00 -79.89, 5.91 104.88 04/04/2020 21:37:52 -79.90, 5.93 104.87 1.07 8
2 04/07/2020 03:11:45 79.90, 102.41 74.29 04/07/2020 03:11:11 79.89, 102.57 74.28 3.20 34
3 04/07/2020 04:01:11 -79.91, -90.00 105.72 04/07/2020 04:02:11 -79.91, -89.92 105.75 1.80 60
4 04/09/2020 08:45:27 -79.86,-160.68 106.63 04/09/2020 08:44:31 -79.88,-160.78 106.58 3.57 56
5 04/09/2020 09:34:55 79.88, 6.75 73.40 04/09/2020 09:35:31 79.89, 6.57 73.41 3.63 36
6 04/11/2020 15:08:38 -79.88, 103.36 107.44 04/11/2020 15:08:50 -79.89, 103.34 107.43 1.60 12
7 04/13/2020 20:42:23 79.90,-160.24 71.78 04/13/2020 20:42:11 79.87,-160.18 71.75 3.46 12
8 04/16/2020 02:16:04 -79.86, -63.39 109.09 04/16/2020 02:15:28 -79.87, -63.46 109.06 1.47 36




NCC Satellite Simultaneous Nadir Overpasses (SNOs) Prediction Service
